TIANMU-1 18

Last updated on Sat Dec 13 2025 00:02:23 GMT+0000 (Coordinated Universal Time)

1 58703U 24004D 25346.34549711 .00009968 00000+0 40870-3 0 9990 2 58703 97.4621 167.8108 0003049 302.3113 57.7829 15.24456990107285
UTC large
Height (km)
Speed (km/s)
/
Latitude / Longitude
Inclination (degrees)
Orbital Period (minutes)
Azimuth
Elevation
Range (km)
Doppler Factor

Next 0 passes for location: London (51.5072 / 0.1276)

Sorry there are no passes over London.